Volver al catálogo

SL-8 DEB

LostLEO
NORAD 56998·DEBRIS·🇷🇺 Russia

Lanzado Oct 13, 1971 desde Plesetsk Cosmodrome

Loading…

Próximos Pases (próximas 24 horas)

TLE

ObsoletoSource: Space-Track

Época: Jun 28, 2026, 03:35 UTC

1 56998U 71086L   26179.14998715  .00000023  00000-0  33404-3 0  9990
2 56998  74.0253 347.5502 0074651 291.5324  67.7769 12.27776485559465

Sigue SL-8 DEB en tiempo real con AllMySat

Download on the App Store